This is the latest recevied weather packets stored in our database for station/object N4CRH-13. If no packets are shown the sender has not sent any weather packets the latest 10 day(s).
| Time | Temp. | Humidity | Pressure | Rain* | Wind** | Luminosity | Snow |
|---|---|---|---|---|---|---|---|
| 1778014296 | 1.67° C | 99% | 1289.2 hPa | 0 mm | - | 112 W/m² | - |
| 1778013993 | 1.67° C | 99% | 1289.2 hPa | 0 mm | - | 116 W/m² | - |
| 1778013692 | 2.22° C | 99% | 1289.5 hPa | 0 mm | - | 198 W/m² | - |
| 1778013388 | 1.67° C | 99% | 1289.2 hPa | 1.78 mm | - | 205 W/m² | - |
| 1778013085 | 1.67° C | 99% | 1289.4 hPa | 1.78 mm | - | 225 W/m² | - |
| 1778012780 | 1.67° C | 99% | 1289.4 hPa | 0 mm | - | 139 W/m² | - |
| 1778012476 | 1.67° C | 99% | 1289.6 hPa | 0 mm | - | 139 W/m² | - |
| 1778012173 | 1.67° C | 99% | 1289.6 hPa | 0 mm | - | 134 W/m² | - |
| 1778011871 | 1.67° C | 99% | 1289.6 hPa | 0 mm | - | 178 W/m² | - |
| 1778011564 | 1.67° C | 99% | 1289.7 hPa | 0 mm | - | 201 W/m² | - |
| 1778011260 | 1.67° C | 99% | 1289.6 hPa | 0 mm | - | 249 W/m² | - |
| 1778010955 | 1.67° C | 99% | 1289.7 hPa | 0 mm | - | 213 W/m² | - |
| 1778010653 | 1.67° C | 99% | 1289.7 hPa | 0 mm | - | 225 W/m² | - |
| 1778010350 | 1.11° C | 99% | 1289.7 hPa | 0 mm | - | 209 W/m² | - |
| 1778010046 | 1.11° C | 99% | 1290 hPa | 1.27 mm | - | 174 W/m² | - |
| 1778009743 | 1.11° C | 99% | 1289.8 hPa | 1.27 mm | - | 168 W/m² | - |
| 1778009440 | 1.11° C | 99% | 1290.1 hPa | 0 mm | - | 157 W/m² | - |
| 1778009139 | 1.11° C | 99% | 1289.8 hPa | 0 mm | - | 145 W/m² | - |
| 1778008836 | 0.56° C | 99% | 1290.1 hPa | 0 mm | - | 166 W/m² | - |
| 1778008529 | 0.56° C | 99% | 1289.8 hPa | 1.78 mm | - | 152 W/m² | - |
| 1778008226 | 0.56° C | 99% | 1290.2 hPa | 1.78 mm | - | 123 W/m² | - |
| 1778007920 | 0.56° C | 99% | 1290.2 hPa | 0 mm | - | 99 W/m² | - |
| 1778007617 | 0.56° C | 99% | 1290.2 hPa | 0 mm | - | 103 W/m² | - |
| 1778007314 | 1.11° C | 99% | 1290.1 hPa | 1.27 mm | - | 116 W/m² | - |
| 1778007010 | 1.11° C | 99% | 1290 hPa | 0 mm | - | 130 W/m² | - |
* Rain latest hour (hover to see other rain measurements)
** Current wind speed in m/s (hover to see current wind gust speed)